Location: Perryvale
(54.4667°N, 113.3833°W)
Time: 05:54:22
(UTC+00:00)

Transit 2A Rocket - Pass Details

Date: 25 May 2024
Orbit: 583 x 910 km, 66.7° (Epoch: 23 June)

Event Time Altitude Azimuth Distance (km) Brightness Sun altitude
Exits shadow 09:39:36 - 164° (SSE) 2,840 7.5 -9.6°
Reaches altitude 10° 09:42:01 10° 146° (SSE) 2,157 7.1 -9.4°
Maximum altitude 09:45:10 17° 106° (ESE) 1,784 7.1 -9.1°
Drops below altitude 10° 09:48:30 10° 67° (ENE) 2,308 8.4 -8.9°
Sets 09:51:46 0° 48° (NE) 3,311 10.1 -8.6°
